Tracking 27111 objects as of 28-Mar-2023
HD Live streaming from Space Station
objects crossing your sky now

CZ-4C DEB

Track CZ-4C DEB now!
10-day predictions


NORAD ID: 43421
Int'l Code: 2014-080K
Perigee: 895.7 km
Apogee: 1,306.0 km
Inclination: 63.4 °
Period: 107.1 minutes
Semi major axis: 7471 km
RCS: Unknown
Launch date: December 10, 2014
Source: People's Republic of China (PRC)
Launch site: Jiuquan Satellite Launch Center, China (JSC)

Note: This is SATELLITE DEBRIS
Your satellite tracking list
Your tracking list is empty




NASA's NSSDC Master Catalog

Two Line Element Set (TLE):
1 43421U 14080K   23086.81520920  .00000097  00000-0  25693-3 0  9997
2 43421  63.3947 116.7373 0274554   6.4714 353.9741 13.44195112330880
Source of the keplerian elements: AFSPC